CW2621 Weather Reports


Display with metric or nautical units.
time (UTC)temp
F
wind
direction
speed
MPH
gust
MPH
rain 1hr
in
rain 24hr
in
rain mn
in
humidity
%
barometer
mb
20260510225052 62 0 0.0 2.0 0.00 0.20 0.00 77 1015.4
20260510224531 62 139 1.0 1.0 0.00 0.20 0.00 80 1015.4
20260510224031 62 0 0.0 1.0 0.00 0.20 0.00 79 1015.3
20260510223530 62 0 0.0 1.0 0.00 0.20 0.00 79 1015.3
20260510223030 62 0 0.0 1.0 0.00 0.20 0.00 76 1015.4
20260510222530 62 0 0.0 1.0 0.00 0.20 0.00 76 1015.3
20260510222030 62 0 0.0 1.0 0.00 0.20 0.00 76 1015.3
20260510221531 62 0 0.0 1.0 0.00 0.20 0.00 74 1015.3
20260510221030 63 0 0.0 3.0 0.00 0.20 0.00 76 1015.3
20260510220530 63 0 0.0 3.0 0.00 0.20 0.00 72 1015.0
20260510220031 63 96 3.0 5.0 0.00 0.20 0.00 72 1014.9
20260510215531 63 0 0.0 5.0 0.00 0.20 0.00 70 1015.2
20260510215030 64 147 0.0 2.0 0.00 0.20 0.00 70 1015.1
20260510214552 64 184 1.0 5.0 0.00 0.20 0.00 70 1014.9
20260510214030 64 0 0.0 5.0 0.00 0.20 0.00 73 1014.8
20260510213531 64 160 1.0 4.0 0.00 0.20 0.00 76 1014.9
20260510213031 63 139 4.0 4.0 0.00 0.20 0.00 77 1014.8
20260510212531 63 120 0.0 4.0 0.00 0.20 0.00 80 1014.8
20260510212030 63 212 1.0 4.0 0.00 0.20 0.00 82 1014.6
20260510211531 63 307 3.0 4.0 0.00 0.20 0.00 80 1014.7
20260510211030 63 0 0.0 5.0 0.00 0.20 0.00 78 1014.8
20260510210530 63 67 1.0 5.0 0.00 0.20 0.00 78 1014.8
20260510210030 64 112 0.0 4.0 0.00 0.20 0.00 78 1014.9
20260510205530 65 66 2.0 4.0 0.00 0.20 0.00 76 1014.8
20260510205030 65 200 1.0 4.0 0.00 0.20 0.00 75 1014.6
20260510204531 65 162 1.0 3.0 0.00 0.20 0.00 75 1014.4
20260510204031 65 0 0.0 3.0 0.00 0.20 0.00 74 1014.2
20260510203531 66 129 2.0 3.0 0.00 0.20 0.00 73 1014.1
20260510203030 66 0 0.0 6.0 0.00 0.20 0.00 74 1014.1
20260510202552 66 207 0.0 6.0 0.00 0.20 0.00 73 1014.1
20260510202031 66 181 1.0 3.0 0.00 0.20 0.00 72 1014.1
20260510201530 66 0 0.0 4.0 0.00 0.20 0.00 72 1014.0
20260510201031 67 131 0.0 4.0 0.00 0.20 0.00 71 1013.9
20260510200530 67 152 1.0 2.0 0.00 0.20 0.00 71 1013.9
20260510200031 67 176 1.0 3.0 0.00 0.20 0.00 72 1014.1
20260510195531 67 219 1.0 3.0 0.00 0.20 0.00 70 1014.0
20260510195051 67 128 3.0 3.0 0.00 0.20 0.00 70 1014.1
20260510194531 68 210 1.0 4.0 0.00 0.20 0.00 68 1014.2
20260510194052 68 0 0.0 4.0 0.00 0.20 0.00 67 1014.2
20260510193531 68 160 0.0 4.0 0.00 0.20 0.00 68 1014.1
20260510193031 68 133 1.0 5.0 0.00 0.20 0.00 67 1014.1
20260510192531 69 124 2.0 5.0 0.00 0.20 0.00 67 1014.1
20260510192051 69 181 0.0 5.0 0.00 0.20 0.00 65 1014.3
20260510191552 70 160 1.0 5.0 0.00 0.20 0.00 64 1014.2
20260510191030 70 149 0.0 5.0 0.00 0.20 0.00 65 1014.3
20260510190531 70 159 1.0 5.0 0.00 0.20 0.00 68 1014.4
20260510190030 69 250 1.0 5.0 0.00 0.20 0.00 67 1014.4
20260510185530 69 195 1.0 5.0 0.00 0.20 0.00 66 1014.4
20260510185030 70 241 2.0 6.0 0.00 0.20 0.00 66 1014.5
20260510184531 70 184 1.0 7.0 0.00 0.20 0.00 65 1014.5
20260510184052 70 124 2.0 7.0 0.00 0.20 0.00 63 1014.4
20260510183530 70 134 3.0 7.0 0.00 0.20 0.00 62 1014.4
20260510183030 70 126 2.0 6.0 0.00 0.20 0.00 64 1014.4
20260510182531 70 0 0.0 6.0 0.00 0.20 0.00 66 1014.5
20260510182052 70 0 0.0 4.0 0.00 0.20 0.00 64 1014.5
20260510181530 70 142 3.0 4.0 0.00 0.20 0.00 64 1014.5
20260510181031 69 150 2.0 4.0 0.00 0.20 0.00 67 1014.6
20260510180530 69 0 0.0 4.0 0.00 0.20 0.00 68 1014.7
20260510180051 68 137 1.0 5.0 0.00 0.20 0.00 69 1014.6
20260510175551 68 0 0.0 5.0 0.00 0.20 0.00 68 1014.5
20260510175031 68 144 1.0 5.0 0.00 0.20 0.00 71 1014.7
20260510174530 68 86 1.0 5.0 0.00 0.20 0.00 68 1014.7
20260510174052 68 103 1.0 6.0 0.00 0.20 0.00 70 1014.6
20260510173530 68 140 1.0 6.0 0.00 0.20 0.00 71 1014.5
20260510173030 67 131 1.0 6.0 0.00 0.20 0.00 72 1014.6
20260510172531 68 143 0.0 4.0 0.00 0.20 0.00 72 1014.7
20260510172030 67 148 2.0 5.0 0.00 0.20 0.00 73 1014.6
20260510171551 67 156 2.0 5.0 0.00 0.20 0.00 72 1014.6
20260510171051 67 195 0.0 4.0 0.00 0.20 0.00 73 1014.7
20260510170530 67 172 1.0 3.0 0.00 0.20 0.00 74 1014.8
20260510170030 66 169 1.0 4.0 0.00 0.20 0.00 74 1014.8
20260510165530 66 0 0.0 5.0 0.00 0.20 0.00 75 1014.9
20260510165031 66 143 1.0 5.0 0.00 0.20 0.00 79 1015.1
20260510164552 66 155 2.0 7.0 0.00 0.20 0.00 77 1015.0
20260510164031 65 147 1.0 7.0 0.00 0.20 0.00 76 1015.0
20260510163530 65 168 0.0 3.0 0.00 0.20 0.00 78 1015.1
20260510163030 64 130 1.0 3.0 0.00 0.20 0.00 78 1015.1
20260510162531 64 0 0.0 3.0 0.00 0.20 0.00 77 1015.1
20260510162031 64 0 0.0 3.0 0.00 0.20 0.00 80 1015.0
20260510161531 64 123 3.0 4.0 0.00 0.20 0.00 78 1015.1
20260510161051 64 32 1.0 4.0 0.00 0.20 0.00 80 1015.1
20260510160531 63 147 1.0 3.0 0.00 0.20 0.00 78 1015.1
20260510160030 64 135 0.0 3.0 0.00 0.20 0.00 80 1015.3
20260510155531 63 136 1.0 3.0 0.00 0.20 0.00 80 1015.2
20260510155030 63 200 2.0 3.0 0.00 0.20 0.00 81 1015.3
20260510154530 63 128 1.0 4.0 0.00 0.20 0.00 80 1015.4
20260510154030 62 259 2.0 4.0 0.00 0.20 0.00 82 1015.4
20260510153531 62 166 1.0 4.0 0.00 0.20 0.00 84 1015.4
20260510153030 60 200 1.0 5.0 0.00 0.20 0.00 84 1015.4
20260510152530 60 202 2.0 5.0 0.00 0.20 0.00 84 1015.3
20260510152030 60 244 1.0 5.0 0.00 0.20 0.00 84 1015.5
20260510151530 59 139 0.0 4.0 0.00 0.20 0.00 84 1015.6
20260510151030 59 0 0.0 4.0 0.00 0.20 0.00 84 1015.6
20260510150531 59 30 1.0 4.0 0.00 0.20 0.00 84 1015.6
20260510150030 59 235 2.0 4.0 0.00 0.20 0.00 86 1015.6
20260510145530 59 151 0.0 3.0 0.00 0.20 0.00 85 1015.5
20260510145030 58 158 1.0 3.0 0.00 0.20 0.00 86 1015.5
20260510144530 58 188 1.0 3.0 0.00 0.20 0.00 87 1015.4
20260510144031 57 188 2.0 3.0 0.00 0.20 0.00 87 1015.4
20260510143530 57 224 2.0 2.0 0.00 0.20 0.00 87 1015.4
20260510143052 57 175 1.0 2.0 0.00 0.20 0.00 88 1015.4
20260510142530 56 175 1.0 2.0 0.00 0.20 0.00 88 1015.2
20260510142031 56 255 1.0 2.0 0.00 0.20 0.00 88 1015.3
20260510141530 56 0 0.0 4.0 0.00 0.20 0.00 89 1015.1
20260510141031 55 257 1.0 4.0 0.00 0.20 0.00 89 1015.0
20260510140530 55 245 4.0 4.0 0.00 0.20 0.00 89 1015.0
20260510140030 55 236 2.0 4.0 0.00 0.20 0.00 89 1015.1
20260510135530 55 247 2.0 2.0 0.00 0.20 0.00 89 1015.2
20260510135031 55 0 0.0 2.0 0.00 0.20 0.00 89 1015.2
20260510134530 55 0 0.0 3.0 0.00 0.20 0.00 89 1015.3
20260510134051 55 247 2.0 3.0 0.00 0.20 0.00 89 1015.2
20260510133531 55 0 0.0 3.0 0.00 0.20 0.00 89 1015.2
20260510133031 55 244 2.0 3.0 0.00 0.20 0.00 89 1015.1
20260510132531 55 265 1.0 3.0 0.00 0.20 0.00 88 1015.1
20260510132031 55 212 1.0 2.0 0.00 0.20 0.00 88 1015.2
20260510131531 55 0 0.0 2.0 0.00 0.20 0.00 88 1015.2
20260510131030 55 124 1.0 3.0 0.00 0.20 0.00 88 1015.2
20260510130531 55 124 1.0 3.0 0.00 0.20 0.00 88 1015.2
20260510130030 55 0 0.0 2.0 0.00 0.20 0.00 88 1015.1
20260510125531 55 0 0.0 2.0 0.00 0.20 0.00 89 1015.1
20260510125031 55 0 0.0 2.0 0.00 0.20 0.00 89 1015.1
20260510124530 55 236 2.0 2.0 0.00 0.20 0.00 89 1015.0
20260510124030 55 0 0.0 2.0 0.00 0.20 0.00 88 1014.9
20260510123531 55 0 0.0 1.0 0.00 0.20 0.00 89 1014.8
20260510123030 54 186 1.0 1.0 0.00 0.20 0.00 90 1014.7
20260510122531 54 169 0.0 1.0 0.00 0.20 0.00 91 1014.6
20260510122030 53 169 1.0 1.0 0.00 0.20 0.00 92 1014.6
20260510121531 53 0 0.0 1.0 0.00 0.20 0.00 92 1014.7
20260510121031 52 0 0.0 2.0 0.00 0.20 0.00 92 1014.6
20260510120530 52 0 0.0 2.0 0.00 0.20 0.00 92 1014.6
20260510120030 52 155 2.0 3.0 0.00 0.20 0.00 92 1014.6
20260510115531 52 86 0.0 3.0 0.00 0.20 0.00 92 1014.5
20260510115030 52 0 0.0 4.0 0.00 0.20 0.00 93 1014.5
20260510114530 51 0 0.0 5.0 0.00 0.20 0.00 93 1014.5
20260510114051 51 245 3.0 5.0 0.00 0.20 0.00 93 1014.4
20260510113551 51 0 0.0 4.0 0.00 0.20 0.00 93 1014.4
20260510113030 51 258 2.0 6.0 0.00 0.20 0.00 93 1014.4
20260510112552 51 238 3.0 7.0 0.00 0.20 0.00 93 1014.4
20260510112031 51 0 0.0 7.0 0.00 0.20 0.00 93 1014.2
20260510111530 51 255 2.0 3.0 0.00 0.20 0.00 93 1014.3
20260510111031 51 0 0.0 2.0 0.00 0.20 0.00 93 1014.3
20260510110551 51 0 0.0 2.0 0.00 0.20 0.00 93 1014.3
20260510110030 51 0 0.0 1.0 0.00 0.20 0.00 93 1014.3
20260510105531 51 0 0.0 1.0 0.00 0.20 0.00 93 1014.2
20260510105031 51 0 0.0 2.0 0.00 0.20 0.00 93 1014.4
20260510104530 50 0 0.0 4.0 0.00 0.20 0.00 93 1014.2
20260510104052 50 0 0.0 10.0 0.00 0.20 0.00 93 1013.9
20260510103530 50 0 0.0 10.0 0.00 0.20 0.00 93 1013.5
20260510103030 0 262 4.0 4.0 0.00 0.20 0.00 100
20260510102549 50 0 0.0 1.0 0.00 0.20 0.00 93 1013.7
20260510102049 51 0 0.0 1.0 0.00 0.20 0.00 93 1013.9
20260510101549 51 0 0.0 1.0 0.00 0.20 0.00 93 1014.2
20260510101049 50 0 0.0 0.0 0.00 0.20 0.00 93 1014.2
20260510100609 50 0 0.0 0.0 0.00 0.20 0.00 93 1014.3
20260510100049 50 0 0.0 0.0 0.00 0.20 0.00 93 1014.3
20260510095549 50 0 0.0 0.0 0.00 0.20 0.00 93 1014.2
20260510095049 50 0 0.0 0.0 0.00 0.20 0.00 93 1014.2
20260510094549 50 0 0.0 0.0 0.00 0.20 0.00 93 1014.3
20260510094048 50 0 0.0 0.0 0.00 0.20 0.00 93 1014.3
20260510093549 50 0 0.0 0.0 0.00 0.20 0.00 93 1014.3
20260510093049 50 0 0.0 0.0 0.00 0.20 0.00 93 1014.2
20260510092549 50 0 0.0 0.0 0.00 0.20 0.00 93 1014.3
20260510092049 50 0 0.0 0.0 0.00 0.20 0.00 93 1014.4
20260510091549 50 0 0.0 0.0 0.00 0.20 0.00 93 1014.4
20260510091049 50 0 0.0 0.0 0.00 0.20 0.00 93 1014.5
20260510090550 50 0 0.0 0.0 0.00 0.20 0.00 93 1014.5
20260510090049 50 0 0.0 0.0 0.00 0.20 0.00 93 1014.3
20260510085548 50 0 0.0 0.0 0.00 0.20 0.00 93 1014.2
20260510085049 50 0 0.0 0.0 0.00 0.20 0.00 93 1014.2
20260510084549 50 0 0.0 0.0 0.00 0.20 0.00 93 1014.1
20260510084110 50 0 0.0 0.0 0.00 0.20 0.00 93 1014.1
20260510083549 51 0 0.0 0.0 0.00 0.20 0.00 93 1014.1
20260510083110 51 0 0.0 0.0 0.00 0.20 0.00 93 1013.9
20260510082610 50 0 0.0 0.0 0.00 0.20 0.00 93 1014.0
20260510082049 50 0 0.0 0.0 0.00 0.20 0.00 93 1013.9
20260510081610 50 0 0.0 0.0 0.00 0.20 0.00 93 1013.9
20260510081049 51 0 0.0 0.0 0.00 0.20 0.00 93 1013.7
20260510080549 51 0 0.0 0.0 0.00 0.20 0.00 93 1013.7
20260510080110 51 0 0.0 0.0 0.00 0.20 0.00 93 1013.7
20260510075549 51 0 0.0 0.0 0.00 0.20 0.00 93 1013.7
20260510075111 51 0 0.0 0.0 0.00 0.20 0.00 93 1013.8
20260510074609 51 0 0.0 0.0 0.00 0.20 0.00 93 1013.8
20260510074049 51 0 0.0 0.0 0.00 0.20 0.00 93 1013.8
20260510073549 51 0 0.0 0.0 0.00 0.20 0.00 93 1013.8
20260510073048 51 0 0.0 0.0 0.00 0.20 0.00 93 1013.9
20260510072549 51 0 0.0 0.0 0.00 0.20 0.00 93 1013.9
20260510072049 51 0 0.0 0.0 0.00 0.20 0.00 93 1013.9
20260510071549 51 0 0.0 0.0 0.00 0.20 0.00 93 1013.9
20260510071049 51 0 0.0 0.0 0.00 0.20 0.00 93 1013.9
20260510070549 51 0 0.0 0.0 0.00 0.20 0.00 93 1013.8
20260510070049 51 0 0.0 0.0 0.00 0.20 0.00 93 1013.9
20260510065548 51 0 0.0 0.0 0.00 0.20 0.00 93 1013.8
20260510065110 51 0 0.0 0.0 0.00 0.20 0.00 93 1013.8
20260510064549 51 0 0.0 0.0 0.00 0.20 0.00 93 1013.7
20260510064110 51 0 0.0 0.0 0.00 0.20 0.00 93 1013.7
20260510063549 51 0 0.0 0.0 0.00 0.20 0.00 93 1013.6
20260510063049 51 0 0.0 0.0 0.00 0.20 0.00 93 1013.6
20260510062610 51 0 0.0 0.0 0.00 0.20 0.00 93 1013.5
20260510062049 51 0 0.0 0.0 0.00 0.20 0.00 93 1013.5
20260510061549 51 0 0.0 0.0 0.00 0.20 0.00 93 1013.5
20260510061049 51 0 0.0 0.0 0.00 0.20 0.00 93 1013.5
20260510060548 51 0 0.0 0.0 0.00 0.20 0.00 93 1013.6
20260510060049 51 0 0.0 0.0 0.00 0.20 0.00 93 1013.7
20260510055549 51 0 0.0 0.0 0.00 0.20 0.00 93 1013.7
20260510055110 51 0 0.0 0.0 0.00 0.20 0.00 94 1013.5
20260510054549 51 0 0.0 0.0 0.00 0.20 0.00 93 1013.7
20260510054049 51 0 0.0 0.0 0.00 0.20 0.00 94 1013.7
20260510053548 51 0 0.0 0.0 0.00 0.20 0.00 93 1013.6
20260510053110 51 0 0.0 0.0 0.00 0.20 0.00 93 1013.7
20260510052610 51 0 0.0 0.0 0.00 0.20 0.00 93 1013.7
20260510052049 51 0 0.0 0.0 0.00 0.20 0.00 93 1013.7
20260510051549 51 0 0.0 0.0 0.00 0.20 0.00 93 1013.9
20260510051048 51 0 0.0 0.0 0.00 0.20 0.00 93 1014.1
20260510050548 51 0 0.0 0.0 0.00 0.20 0.00 93 1013.9
20260510050110 51 0 0.0 0.0 0.00 0.20 0.00 93 1013.9
20260510045610 51 0 0.0 0.0 0.00 0.20 0.00 93 1013.9
20260510045049 51 0 0.0 0.0 0.00 0.20 0.00 93 1013.9
20260510044548 51 0 0.0 0.0 0.00 0.20 0.00 93 1013.9
20260510044049 51 0 0.0 0.0 0.00 0.20 0.00 93 1013.7
20260510043549 51 0 0.0 0.0 0.00 0.20 0.00 93 1013.5
20260510043049 51 0 0.0 0.0 0.00 0.20 0.00 93 1013.6
20260510042549 51 0 0.0 0.0 0.00 0.20 0.00 93 1013.6
20260510042048 51 0 0.0 0.0 0.00 0.20 0.00 93 1013.6
20260510041549 51 0 0.0 1.0 0.00 0.20 0.00 93 1013.6
20260510041049 51 0 0.0 1.0 0.00 0.20 0.00 93 1013.6
20260510040549 51 0 0.0 1.0 0.00 0.20 0.00 93 1013.6
20260510040048 51 0 0.0 1.0 0.00 0.20 0.00 93 1013.8
20260510035617 51 0 0.0 1.0 0.00 0.20 0.20 93 1013.8
20260510035117 51 0 0.0 4.0 0.00 0.20 0.20 93 1013.6
20260510034617 51 0 0.0 4.0 0.00 0.20 0.20 93 1013.5
20260510034117 51 252 0.0 3.0 0.00 0.20 0.20 93 1013.6
20260510033638 51 0 0.0 3.0 0.00 0.20 0.20 93 1013.4
20260510033117 51 0 0.0 3.0 0.00 0.20 0.20 93 1013.6
20260510032617 51 248 1.0 5.0 0.00 0.20 0.20 93 1013.5
20260510032117 51 0 0.0 5.0 0.00 0.20 0.20 93 1013.6
20260510031617 51 242 4.0 5.0 0.00 0.20 0.20 93 1013.5
20260510031117 51 0 0.0 5.0 0.00 0.20 0.20 93 1013.5
20260510030617 50 236 1.0 3.0 0.00 0.20 0.20 93 1013.3
20260510030117 51 0 0.0 3.0 0.00 0.20 0.20 92 1013.3
20260510025617 51 0 0.0 3.0 0.00 0.20 0.20 92 1013.2
20260510025117 51 0 0.0 3.0 0.00 0.20 0.20 92 1013.3
20260510024617 51 0 0.0 3.0 0.00 0.20 0.20 92 1013.3
20260510024117 51 311 0.0 3.0 0.00 0.20 0.20 92 1013.3
20260510023617 51 259 2.0 4.0 0.00 0.20 0.20 92 1013.4
20260510023117 51 259 1.0 4.0 0.00 0.20 0.20 92 1013.4
20260510022638 52 0 0.0 3.0 0.00 0.20 0.20 92 1013.4
20260510022117 52 290 2.0 3.0 0.00 0.20 0.20 92 1013.3
20260510021617 52 0 0.0 2.0 0.00 0.20 0.20 92 1013.5
20260510021117 52 0 0.0 3.0 0.00 0.20 0.20 92 1013.6
20260510020617 52 0 0.0 5.0 0.00 0.20 0.20 92 1013.5
20260510020116 52 0 0.0 5.0 0.00 0.20 0.20 92 1013.5
20260510015617 52 298 1.0 5.0 0.00 0.20 0.20 92 1013.5
20260510015117 52 0 0.0 5.0 0.00 0.20 0.20 92 1013.6
20260510014617 52 0 0.0 5.0 0.00 0.20 0.20 92 1013.5
20260510014116 52 233 4.0 5.0 0.00 0.20 0.20 92 1013.5
20260510013617 52 0 0.0 3.0 0.00 0.20 0.20 92 1013.5
20260510013117 52 261 0.0 7.0 0.00 0.20 0.20 92 1013.5
20260510012617 52 0 0.0 7.0 0.00 0.20 0.20 92 1013.3
20260510012117 52 0 0.0 4.0 0.00 0.20 0.20 92 1013.3
20260510011617 52 0 0.0 8.0 0.00 0.20 0.20 92 1013.1
20260510011117 52 0 0.0 9.0 0.01 0.20 0.20 93 1013.3
20260510010616 52 247 8.0 9.0 0.01 0.20 0.20 93 1013.2
20260510010117 52 0 0.0 5.0 0.01 0.20 0.20 93 1013.1
20260510005616 52 0 0.0 5.0 0.02 0.20 0.20 93 1013.1
20260510005117 52 0 0.0 5.0 0.02 0.20 0.20 93 1013.0
20260510004617 52 0 0.0 2.0 0.03 0.20 0.20 93 1013.0
20260510004138 52 0 0.0 1.0 0.03 0.20 0.20 93 1013.0
20260510003617 52 0 0.0 2.0 0.04 0.20 0.20 93 1013.0
20260510003117 53 0 0.0 6.0 0.04 0.20 0.20 93 1013.1
20260510002618 53 0 0.0 6.0 0.04 0.20 0.20 93 1013.1
20260510002117 53 0 0.0 6.0 0.05 0.20 0.20 93 1013.1
20260510001638 53 215 1.0 6.0 0.05 0.20 0.20 93 1013.1
20260510001138 53 0 0.0 6.0 0.05 0.19 0.19 93 1013.1
20260510000617 53 250 1.0 3.0 0.07 0.19 0.19 93 1013.2
20260510000117 53 0 0.0 3.0 0.08 0.19 0.19 93 1013.3
20260509235617 53 244 0.0 3.0 0.10 0.18 0.18 93 1013.2
20260509235116 52 0 0.0 4.0 0.12 0.18 0.18 93 1013.4
20260509234617 52 0 0.0 4.0 0.13 0.17 0.17 93 1013.5
20260509234116 52 0 0.0 3.0 0.16 0.17 0.17 93 1013.5
20260509233617 52 265 0.0 3.0 0.15 0.16 0.16 93 1013.6
20260509233117 52 0 0.0 3.0 0.15 0.16 0.16 93 1013.6
20260509232638 52 251 2.0 2.0 0.16 0.16 0.16 93 1013.5
20260509232138 52 0 0.0 1.0 0.15 0.15 0.15 93 1013.6
20260509231617 52 210 1.0 1.0 0.15 0.15 0.15 93 1013.7
20260509231116 52 0 0.0 1.0 0.14 0.14 0.14 93 1013.8
20260509230617 52 0 0.0 1.0 0.12 0.12 0.12 93 1013.8
20260509230116 52 0 0.0 1.0 0.10 0.10 0.10 93 1013.9
20260509225638 52 0 0.0 2.0 0.08 0.08 0.08 93 1013.9